Cork, Ireland

2:04 PM IST on July 24, 2017 (GMT +0100)
Cork

Weather History for EICK - April, 2014

Change the Weather History Date:

Thursday, April 10, 2014

  Actual Average Record
Temperature  
Mean Temperature 47 °F -  
Max Temperature 53 °F 54 °F 60 °F (2007)
Min Temperature 41 °F 41 °F 28 °F (1998)
Degree Days  
Heating Degree Days 18    
Moisture  
Dew Point 43 °F    
Average Humidity 82    
Maximum Humidity 100    
Minimum Humidity 54    
Precipitation  
Precipitation 0.02 in 0.10 in - ()
Sea Level Pressure  
Sea Level Pressure 30.22 in    
Wind  
Wind Speed 8 mph ()    
Max Wind Speed 16 mph    
Max Gust Speed -    
Visibility 7.7 miles    
Events Rain    
Averages and records for this station are not official NWS values.
T = Trace of Precipitation, MM = Missing Value Source: Averaged Metar Reports

Daily Weather History Graph

Daily Weather History Graph

Search for Another Location

Airport or City:

Trip Planner

Search our weather history database for the weather conditions in past years. The results will help you decide how hot, cold, wet, or windy it might be!

Date:

Astronomy

Apr. 10, 2014 Rise Set
Actual Time 6:48 AM IST 8:22 PM IST
Civil Twilight 6:13 AM IST 8:57 PM IST
Nautical Twilight 5:30 AM IST 9:41 PM IST
Astronomical Twilight 4:43 AM IST 10:29 PM IST
Moon 3:23 PM IST (4/10) 4:37 AM IST (4/10)
Length of Visible Light 14h 44m
Length of Day
13h 33m
Waxing Gibbous, 78% of the Moon is Illuminated
Apr 10
Waxing Gibbous
Apr 15
Full
Apr 22
Last Quarter
Apr 29
New
May 7
First Quarter

Hourly Weather History & Observations

Time (IST) Temp. Windchill Dew Point Humidity Pressure Visibility Wind Dir Wind Speed Gust Speed Precip Events Conditions
12:00 AM 46 °F - 44 °F 88% 30.27 in 16 mi SW 6.7 mph - -   Mostly Cloudy
12:00 AM 46.4 °F 42.9 °F 42.8 °F 87% 30.24 in 6.2 mi SW 6.9 mph - N/A   Mostly Cloudy
12:30 AM 46.4 °F 42.9 °F 44.6 °F 93% 30.24 in 6.2 mi SW 6.9 mph - N/A   Mostly Cloudy
1:00 AM 46 °F - 44 °F 90% 30.27 in 16 mi West 6.7 mph - -   Mostly Cloudy
1:00 AM 46.4 °F 43.5 °F 44.6 °F 93% 30.24 in 6.2 mi West 5.8 mph - N/A   Mostly Cloudy
1:30 AM 46.4 °F 42.9 °F 44.6 °F 93% 30.24 in 6.2 mi WSW 6.9 mph - N/A   Mostly Cloudy
2:00 AM 46 °F - 44 °F 91% 30.26 in 16 mi WSW 8.9 mph - -   Mostly Cloudy
2:00 AM 46.4 °F 41.9 °F 44.6 °F 93% 30.24 in 6.2 mi WSW 9.2 mph - N/A   Mostly Cloudy
2:30 AM 46.4 °F 42.4 °F 44.6 °F 93% 30.24 in 6.2 mi WSW 8.1 mph - N/A   Mostly Cloudy
3:00 AM 46 °F - 44 °F 91% 30.25 in 12 mi SW 6.7 mph - -   Mostly Cloudy
3:00 AM 46.4 °F 42.9 °F 44.6 °F 93% 30.21 in 6.2 mi SW 6.9 mph - N/A   Mostly Cloudy
3:30 AM 44.6 °F 41.4 °F 44.6 °F 100% 30.21 in 6.2 mi SW 5.8 mph - N/A   Mostly Cloudy
4:00 AM 45 °F - 44 °F 94% 30.24 in 12 mi SW 6.7 mph - -   Mostly Cloudy
4:00 AM 44.6 °F 40.7 °F 44.6 °F 100% 30.21 in 6.2 mi SW 6.9 mph - N/A   Mostly Cloudy
4:30 AM 44.6 °F 41.4 °F 44.6 °F 100% 30.21 in 6.2 mi WSW 5.8 mph - N/A   Mostly Cloudy
5:00 AM 45 °F - 44 °F 93% 30.24 in 12 mi WSW 6.7 mph - -   Mostly Cloudy
5:00 AM 44.6 °F 41.4 °F 44.6 °F 100% 30.21 in 6.2 mi WSW 5.8 mph - N/A   Mostly Cloudy
5:30 AM 44.6 °F 42.2 °F 44.6 °F 100% 30.21 in 6.2 mi West 4.6 mph - N/A   Mostly Cloudy
6:00 AM 46 °F - 44 °F 92% 30.23 in 16 mi WNW 6.7 mph - -   Mostly Cloudy
6:00 AM 46.4 °F 43.5 °F 44.6 °F 93% 30.21 in 6.2 mi WNW 5.8 mph - N/A   Mostly Cloudy
6:30 AM 46.4 °F 41.9 °F 44.6 °F 93% 30.21 in 6.2 mi WSW 9.2 mph - N/A   Light Drizzle
7:00 AM 46 °F - 44 °F 89% 30.23 in 22 mi West 4.5 mph - - Rain Light Drizzle
7:00 AM 46.4 °F 44.3 °F 44.6 °F 93% 30.21 in 6.2 mi West 4.6 mph - N/A   Mostly Cloudy
7:30 AM 44.6 °F 42.2 °F 42.8 °F 93% 30.21 in 6.2 mi WSW 4.6 mph - N/A   Mostly Cloudy
8:00 AM 45 °F - 44 °F 92% 30.23 in 25 mi SSW 4.5 mph - -   Mostly Cloudy
8:00 AM 44.6 °F 42.2 °F 42.8 °F 93% 30.21 in 6.2 mi SSW 4.6 mph - N/A   Mostly Cloudy
8:30 AM 44.6 °F 43.1 °F 44.6 °F 100% 30.21 in 6.2 mi SSW 3.5 mph - N/A   Scattered Clouds
9:00 AM 47 °F - 45 °F 90% 30.24 in 31 mi SW 6.7 mph - - Rain Light Drizzle
9:00 AM 46.4 °F 42.9 °F 44.6 °F 93% 30.21 in 6.2 mi SW 6.9 mph - N/A   Scattered Clouds
9:30 AM 50.0 °F - 44.6 °F 82% 30.21 in 6.2 mi SW 6.9 mph - N/A   Mostly Cloudy
10:00 AM 50 °F - 45 °F 77% 30.23 in 31 mi WSW 8.9 mph - -   Partly Cloudy
10:00 AM 50.0 °F - 44.6 °F 82% 30.21 in 6.2 mi WSW 9.2 mph - N/A   Mostly Cloudy
10:30 AM 51.8 °F - 44.6 °F 76% 30.21 in 6.2 mi WSW 12.7 mph - N/A   Mostly Cloudy
11:00 AM 52 °F - 45 °F 70% 30.22 in 31 mi WSW 11.2 mph - -   Mostly Cloudy
11:00 AM 51.8 °F - 44.6 °F 76% 30.21 in 6.2 mi WSW 10.4 mph - N/A   Mostly Cloudy
11:30 AM 51.8 °F - 44.6 °F 76% 30.21 in 6.2 mi WSW 10.4 mph - N/A   Mostly Cloudy
12:00 PM 53 °F - 45 °F 65% 30.22 in 31 mi WSW 13.4 mph - - Rain Light Rain Showers
12:00 PM 51.8 °F - 44.6 °F 76% 30.21 in 6.2 mi WSW 12.7 mph - N/A   Mostly Cloudy
12:30 PM 51.8 °F - 44.6 °F 76% 30.21 in 6.2 mi WSW 12.7 mph - N/A   Mostly Cloudy
1:00 PM 53 °F - 45 °F 67% 30.21 in 31 mi WSW 13.4 mph - -   Partly Cloudy
1:00 PM 53.6 °F - 44.6 °F 72% 30.18 in 6.2 mi WSW 13.8 mph - N/A   Mostly Cloudy
1:30 PM 51.8 °F - 44.6 °F 76% 30.18 in 6.2 mi WSW 11.5 mph - N/A   Mostly Cloudy
2:00 PM 52 °F - 47 °F 78% 30.20 in 31 mi WSW 15.7 mph - -   Mostly Cloudy
2:00 PM 51.8 °F - 46.4 °F 82% 30.18 in 6.2 mi WSW 15.0 mph - N/A   Mostly Cloudy
3:00 PM 52 °F - 47 °F 76% 30.20 in 12 mi WSW 13.4 mph - - Rain Light Drizzle
3:00 PM 51.8 °F - 46.4 °F 82% 30.18 in 6.2 mi WSW 15.0 mph - N/A   Light Drizzle
3:30 PM 51.8 °F - 46.4 °F 82% 30.18 in 4.3 mi WSW 11.5 mph - N/A   Light Drizzle
4:00 PM 49 °F - 47 °F 92% 30.20 in 2 mi NW 13.4 mph - - Rain Light Rain
4:00 PM 50.0 °F - 48.2 °F 94% 30.18 in 2.2 mi NW 12.7 mph - N/A Rain Light Rain
4:30 PM 51.8 °F - 46.4 °F 82% 30.18 in 6.2 mi NW 12.7 mph - N/A   Mostly Cloudy
5:00 PM 50 °F - 46 °F 81% 30.20 in 25 mi NNW 15.7 mph - - Rain Light Rain
5:00 PM 50.0 °F - 46.4 °F 87% 30.18 in 6.2 mi NNW 16.1 mph - N/A   Mostly Cloudy
5:30 PM 50.0 °F - 44.6 °F 82% 30.18 in 6.2 mi NW 13.8 mph - N/A   Mostly Cloudy
6:00 PM 50 °F - 42 °F 65% 30.21 in 25 mi NW 15.7 mph - -   Mostly Cloudy
6:00 PM 50.0 °F - 42.8 °F 76% 30.18 in 6.2 mi NW 15.0 mph - N/A   Mostly Cloudy
6:30 PM 50.0 °F - 41.0 °F 71% 30.18 in 6.2 mi NW 16.1 mph - N/A   Mostly Cloudy
7:00 PM 50 °F - 39 °F 55% 30.21 in 25 mi NNW 15.7 mph - -   Partly Cloudy
7:00 PM 50.0 °F - 39.2 °F 66% 30.18 in 6.2 mi NNW 15.0 mph - N/A   Mostly Cloudy
7:30 PM 48.2 °F - 37.4 °F 66% 30.18 in 6.2 mi NNW 13.8 mph - N/A   Mostly Cloudy
8:00 PM 47 °F - 36 °F 54% 30.23 in 25 mi NNW 15.7 mph - -   Partly Cloudy
8:00 PM 46.4 °F 40.1 °F 35.6 °F 66% 30.21 in 6.2 mi NNW 15.0 mph - N/A   Scattered Clouds
8:30 PM 46.4 °F 41.1 °F 35.6 °F 66% 30.21 in 6.2 mi NNW 11.5 mph - N/A   Scattered Clouds
9:00 PM 45 °F - 35 °F 59% 30.25 in 19 mi NNW 11.2 mph - -   Scattered Clouds
9:00 PM 44.6 °F 39.2 °F 35.6 °F 71% 30.21 in 6.2 mi NNW 10.4 mph - N/A   Partly Cloudy
9:30 PM 44.6 °F 40.7 °F 35.6 °F 71% 30.24 in 6.2 mi NW 6.9 mph - N/A   Partly Cloudy
10:00 PM 43 °F - 35 °F 63% 30.26 in 19 mi NW 6.7 mph - -   Scattered Clouds
10:00 PM 42.8 °F 39.3 °F 35.6 °F 76% 30.24 in 6.2 mi NW 5.8 mph - N/A   Partly Cloudy
10:30 PM 42.8 °F 37.5 °F 33.8 °F 70% 30.24 in 6.2 mi WNW 9.2 mph - N/A   Partly Cloudy
11:00 PM 42 °F - 34 °F 66% 30.28 in 19 mi NW 8.9 mph - -   Scattered Clouds
11:00 PM 41.0 °F 35.8 °F 33.8 °F 76% 30.24 in 6.2 mi NW 8.1 mph - N/A   Partly Cloudy
11:30 PM 41.0 °F 35.8 °F 33.8 °F 76% 30.24 in 6.2 mi NW 8.1 mph - N/A   Partly Cloudy